Regional Weather Roundup
Issued by NWS

Home | Current Version | Previous Version | Graphics & Text | Print | Product List | Glossary On
Versions: 1 2 3 4 5 6 7 8 9 10 11 12 13 14 15 16 17 18 19 20 21 22 23 24 25 26 27 28 29 30 31 32 33 34 35 36 37 38 39 40 41 42 43 44 45 46 47 48 49 50
173
ASUS45 KCYS 260910
RWRWY

WYOMING REGIONAL WEATHER ROUNDUP
NATIONAL WEATHER SERVICE CHEYENNE WY
300 AM MDT MON SEP 26 2016

NOTE:  "FAIR" INDICATES FEW OR NO CLOUDS BELOW 12,000 FEET
WITH NO SIGNIFICANT WEATHER AND/OR OBSTRUCTIONS TO VISIBILITY.

WYZ001-261000-
YELLOWSTONE NATIONAL PARK

CITY           SKY/WX    TMP DP  RH WIND       PRES   REMARKS
LK YELLOWSTONE   N/A     29  29 100 W3        30.56F
W YELLOWSTONE  NOT AVBL

$$
WYZ002>013-054>058-071-098>099-261000-
NORTHERN WYOMING

CITY           SKY/WX    TMP DP  RH WIND       PRES   REMARKS
JACKSON        FAIR      36  34  93 N3        30.52S
CODY           FAIR      43  39  87 S3        30.41S
GREYBULL       FAIR      45  43  93 SE3       30.38R
WORLAND        FAIR      41  40  96 CALM      30.37F
SHERIDAN       FAIR      45  39  79 CALM      30.34R
BUFFALO        FAIR      48  37  65 W7        30.37F
GILLETTE       FAIR      46  39  76 W9        30.34S
HULETT         FAIR      43  36  75 SW8       30.33F
NEWCASTLE      FAIR      39  34  81 N6        30.36F WCI  35

$$
WYZ014>020-022>026-101>103-261000-
CENTRAL WYOMING

CITY           SKY/WX    TMP DP  RH WIND       PRES   REMARKS
BIG PINEY      FAIR      41  34  76 S6        30.49S
PINEDALE       FAIR      39  32  75 W7        30.49F WCI  34
DUBOIS         FAIR      43  34  70 NW15      30.47F
LANDER         FAIR      45  39  79 NW5       30.40S
RIVERTON       FAIR      47  40  76 E3        30.41F
CASPER         FAIR      40  37  89 W7        30.40F
DOUGLAS        FAIR      38  35  89 CALM      30.40F

$$
WYZ021-027>030-104>119-261000-
SOUTHERN WYOMING

CITY           SKY/WX    TMP DP  RH WIND       PRES   REMARKS
EVANSTON       FAIR      45  32  60 SE5       30.51F
FORT BRIDGER   FAIR      47  35  62 W10       30.53F
ROCK SPRINGS   FAIR      44  35  70 SW6       30.48F
DIXON          FAIR      40  33  76 E6        30.52F
RAWLINS        FAIR      37  31  78 CALM      30.47F
SARATOGA       FAIR      36  32  87 S7        30.50F WCI  30
LARAMIE        FAIR      34  30  85 SE9       30.47F WCI  27
CHEYENNE       FAIR      43  33  68 W8        30.43F
TORRINGTON     FAIR      39  35  86 CALM      30.36F
PINE BLUFFS    FAIR      36  32  87 MISG      30.42F

$$




USA.gov is the U.S. government's official web portal to all federal, state and local government web resources and services.